Вернуться в каталог

FENGYUN 1C DEB

LostSSO
NORAD 35096·DEBRIS·🇨🇳 China

Запущен May 10, 1999 с Taiyuan Satellite Launch Center

Loading…

Ближайшие Пролёты (ближайшие 24 часа)

TLE

УстаревшееSource: Space-Track

Эпоха: Apr 11, 2013, 16:01 UTC

1 35096U 99025DJY 13101.66788433  .00001134  00000-0  20989-3 0  9999
2 35096  97.6964 253.7564 0171510 282.0120 139.7816 14.58203864264129

Отслеживайте FENGYUN 1C DEB в реальном времени с AllMySat

Download on the App Store